Theta_e
300 300 300 299 299 298 299 299 299 299 299 299 298 298 297 297 295 295 294 295 294 294 294 293 293 293 293 293 293 293 294 295 295 296 295 295 296 295 297 298 299 300 300 300 300 301 301 301 301 302 302 302 302 303 303 303 303 303 303 303 303 303 302 301 297 298 301 304 302 302 302 302 301 299 297 296 295 295 294 295 295 293 293 293 293
299 299 298 298 297 297 297 297 297 297 296 296 295 295 294 294 292 293 293 293 292 292 292 293 292 293 292 291 292 291 291 293 291 292 292 292 293 296 295 295 295 296 297 298 298 298 298 298 299 299 300 300 300 300 300 300 300 300 299 299 300 300 299 298 297 297 297 301 300 301 301 302 299 299 296 298 296 293 293 292 292 291 291 292 291
298 298 297 297 296 296 295 295 295 294 294 294 294 294 293 292 291 291 291 291 291 291 291 293 292 290 290 290 291 290 291 290 290 290 290 289 290 292 293 292 294 294 295 295 295 296 296 296 296 297 298 297 297 297 297 297 298 297 297 297 297 298 297 298 297 296 296 297 300 299 300 300 299 300 297 296 296 295 293 292 292 292 291 290 289
297 297 296 295 295 295 294 294 293 293 293 292 292 290 290 290 290 290 289 290 292 291 290 290 289 289 289 288 288 289 289 288 288 289 290 289 288 290 289 289 292 293 293 294 294 294 294 294 294 294 294 294 294 294 294 295 295 295 295 295 295 296 296 296 296 296 296 295 297 298 298 298 299 299 296 294 293 293 293 293 292 291 290 289 288
295 295 294 294 293 293 292 291 291 291 291 290 289 289 288 288 289 289 290 290 290 289 289 288 288 289 292 289 290 288 289 289 289 288 288 288 288 289 290 289 290 291 292 292 291 292 293 293 293 293 292 292 292 292 293 293 293 293 294 294 294 295 295 295 295 295 295 294 295 298 298 298 298 298 297 295 293 291 289 289 290 290 289 288 287
294 293 292 291 291 290 290 289 289 289 289 289 288 288 289 288 288 288 287 289 287 288 287 287 287 288 287 288 288 288 288 288 288 289 289 288 288 289 289 289 289 290 290 291 290 291 291 291 291 291 291 291 291 291 291 291 292 292 292 293 294 294 294 294 294 294 294 294 294 294 296 295 295 296 296 293 294 293 292 289 287 286 286 286 286
292 291 290 289 289 289 289 288 289 288 288 288 288 287 287 286 286 286 286 286 286 286 286 286 287 286 287 287 288 288 289 288 288 289 289 288 288 288 288 288 289 289 289 289 290 290 290 290 290 290 290 290 290 290 290 290 291 291 292 292 293 293 293 293 293 293 293 293 293 294 294 295 295 293 295 292 292 293 292 292 290 287 285 286 286
290 290 289 289 289 289 288 287 288 288 287 287 286 286 285 285 285 284 284 284 285 284 285 286 285 285 286 286 287 287 287 287 287 287 287 287 288 287 287 287 287 288 288 288 288 289 289 289 289 290 290 290 290 290 289 289 290 290 291 292 292 292 292 292 292 292 292 292 292 292 293 293 294 294 288 286 287 287 287 288 288 290 288 285 285
289 288 288 288 288 288 288 287 287 287 286 285 285 285 285 284 283 283 283 283 286 284 285 284 285 285 285 285 286 287 289 290 289 288 289 288 287 287 287 287 287 287 287 287 288 288 288 289 289 289 289 289 290 290 291 291 291 290 290 290 290 291 291 291 291 291 291 291 291 292 292 292 292 292 292 291 289 290 292 287 287 288 288 287 286
288 288 288 287 287 286 287 286 286 285 284 284 284 284 283 283 283 283 283 283 283 283 284 284 284 285 285 285 285 287 288 289 289 291 291 289 287 287 287 286 286 286 286 286 287 287 288 288 289 288 288 288 289 290 291 291 291 291 291 290 289 290 289 289 289 290 290 289 290 290 289 290 291 292 291 292 293 291 289 288 286 288 287 286 286
287 287 287 286 286 285 285 285 284 284 283 283 283 283 283 283 283 283 283 283 283 283 284 283 283 284 283 284 284 286 287 288 289 292 292 293 289 286 285 285 285 285 285 286 286 286 287 287 288 288 288 288 288 289 290 291 291 291 291 291 291 290 289 288 288 289 289 289 289 289 289 289 290 292 292 292 292 292 291 289 288 287 286 285 285
286 286 285 285 285 285 284 284 284 283 283 283 283 283 283 283 283 282 282 282 283 283 283 283 283 283 284 282 283 284 285 287 290 291 291 292 291 288 286 285 285 285 285 285 285 285 286 286 287 288 288 288 288 289 289 290 291 291 291 291 291 291 291 290 288 288 288 288 288 288 289 289 290 291 291 291 291 291 290 289 288 287 286 285 285
286 285 285 284 284 284 283 283 283 283 283 282 282 282 281 281 281 282 282 282 282 282 282 282 283 282 282 282 282 283 283 287 289 290 291 291 291 289 286 285 285 285 284 284 285 285 285 285 286 286 287 287 287 287 288 288 289 290 290 290 290 291 292 293 292 290 290 289 288 288 289 289 289 290 291 291 291 290 290 288 287 287 287 286 287
285 284 284 284 283 283 283 282 282 282 282 282 281 280 280 280 280 280 281 281 281 281 281 281 281 282 282 282 282 282 282 286 289 290 290 290 291 290 286 285 285 284 284 284 285 284 284 284 285 285 286 286 286 286 286 287 288 288 288 288 288 288 290 291 291 290 290 290 289 288 290 291 289 290 291 291 290 289 289 289 288 287 286 286 287
285 284 283 283 283 282 282 282 282 281 281 280 279 280 280 280 280 281 281 281 281 282 282 282 282 282 282 282 282 282 283 287 289 289 289 290 290 290 286 285 284 284 284 284 284 284 284 285 284 284 285 285 286 286 286 286 286 287 287 287 287 287 288 288 288 289 289 290 290 290 291 291 291 291 291 292 291 291 290 289 289 289 288 287 286
283 283 282 282 282 281 281 281 281 279 280 279 280 279 279 280 281 280 280 280 280 280 281 279 281 281 281 282 282 282 282 287 288 288 289 289 290 286 284 283 283 283 283 284 284 284 284 284 284 284 284 284 286 288 288 287 286 286 286 286 286 287 287 288 290 290 290 290 290 290 291 291 292 291 291 291 290 290 290 289 288 287 286 285 283
281 281 282 281 281 281 281 280 280 279 279 279 279 280 280 279 279 280 279 280 280 280 280 280 281 281 281 281 280 281 281 284 286 287 288 289 288 284 284 283 283 283 283 284 284 284 284 284 284 284 284 284 286 289 289 289 286 285 285 285 286 286 286 287 290 291 291 291 292 292 293 293 293 294 294 294 292 291 290 287 286 287 284 282 283
280 280 280 280 280 280 280 279 278 279 279 280 279 278 278 278 279 281 279 279 279 279 280 280 280 279 280 280 280 280 281 283 286 287 288 288 288 284 283 283 282 283 283 283 284 283 284 284 284 284 284 284 287 288 289 288 286 285 285 284 284 284 285 287 287 288 290 290 291 291 291 292 292 293 293 294 293 292 289 286 287 287 283 284 282
279 278 279 279 279 279 278 278 277 278 278 277 277 277 278 280 281 280 278 276 277 278 280 279 279 279 277 279 281 281 280 282 285 286 287 288 286 284 283 282 282 282 282 282 283 283 283 283 284 285 285 286 289 289 289 288 286 285 284 284 283 284 285 286 286 287 287 287 287 288 288 289 289 289 289 291 291 290 290 288 288 286 284 284 284
277 277 278 278 278 277 277 278 278 277 276 278 279 279 280 279 277 276 274 276 276 276 276 278 277 278 279 279 280 280 280 281 282 286 287 287 287 285 283 282 281 281 281 281 281 282 283 283 284 286 287 288 288 288 288 289 286 285 285 284 284 284 286 287 287 287 287 287 287 287 287 288 288 288 288 288 288 288 288 288 288 287 285 285 284
277 277 278 278 278 277 278 278 278 278 279 278 278 278 277 275 274 274 274 276 275 276 277 277 278 278 279 279 279 279 280 280 281 285 285 285 285 284 282 281 281 281 281 281 281 281 282 282 283 285 286 286 286 286 286 286 286 285 285 284 285 286 287 286 286 286 287 287 287 287 287 287 287 287 287 287 287 287 287 287 287 287 286 285 284
277 277 278 278 278 277 277 277 277 277 277 277 274 273 274 274 273 274 275 275 275 275 276 277 277 278 278 278 278 279 280 280 280 282 283 284 284 284 282 281 282 281 281 281 281 281 281 282 281 282 283 284 285 286 286 286 286 285 285 286 287 287 285 285 285 286 286 286 286 286 286 286 286 286 286 287 287 287 287 287 287 287 287 286 286
276 277 277 276 276 276 275 275 275 274 274 274 272 271 272 274 274 275 275 274 274 274 274 275 276 276 277 277 277 277 278 279 281 280 281 282 283 283 283 283 284 282 280 279 279 280 280 280 281 282 284 284 285 286 286 286 285 284 286 286 286 286 285 284 284 284 284 284 285 285 285 286 285 286 286 286 286 286 286 286 286 286 286 285 284
275 275 275 275 273 273 273 273 273 273 272 273 272 272 272 273 273 273 273 273 273 273 274 275 275 274 274 275 276 277 277 277 278 280 279 281 282 282 283 283 283 281 280 279 280 280 280 281 282 283 284 284 285 285 285 284 283 284 285 285 285 285 284 284 283 283 284 284 284 284 284 285 286 286 286 286 286 286 283 280 280 279 277 276 278
274 273 272 272 272 272 272 272 273 272 272 272 272 272 271 271 271 271 271 271 272 272 273 273 273 273 273 274 274 275 276 276 276 277 279 280 281 281 281 282 282 282 280 280 280 280 282 283 283 283 284 284 284 284 284 283 284 284 284 285 284 284 284 284 283 283 283 283 283 284 284 285 286 286 287 284 278 276 274 273 273 272 272 272 272
271 271 271 271 271 272 271 272 271 271 270 270 270 269 268 269 269 270 270 270 270 271 271 272 272 272 272 273 273 274 274 275 275 276 277 277 278 279 280 281 281 281 280 280 281 282 282 283 283 283 283 283 282 281 281 282 283 284 284 284 284 284 284 284 283 283 282 283 283 283 285 285 286 285 281 279 278 276 273 272 272 273 274 273 271
270 269 269 269 270 270 270 270 270 269 268 268 268 268 269 268 268 269 269 269 269 269 269 271 271 271 271 272 272 273 273 273 274 274 275 275 276 278 279 279 279 280 279 279 280 280 281 281 282 283 283 283 283 283 283 283 283 283 284 284 284 284 284 284 283 283 283 283 283 284 285 285 278 277 278 278 276 275 275 274 273 272 272 271 270
268 268 268 269 269 269 269 270 269 267 267 268 267 267 267 267 267 268 268 269 268 268 269 269 270 270 270 271 271 271 272 272 273 273 274 276 277 278 278 277 277 277 278 278 279 280 280 281 282 281 281 281 281 280 281 282 282 283 283 283 284 284 284 285 284 284 284 284 284 285 284 279 278 279 277 277 275 274 275 274 273 271 271 270 268
268 268 268 268 268 269 268 267 266 266 265 265 266 268 268 267 268 268 267 268 267 269 270 270 271 270 271 271 270 270 271 271 272 277 277 279 277 276 276 276 277 277 278 280 279 279 279 279 278 278 278 277 277 278 279 280 281 282 282 283 283 284 284 283 283 283 284 284 283 283 283 281 278 277 276 274 274 274 274 273 273 271 271 271 267
267 267 267 267 266 266 265 264 264 265 265 265 266 266 271 272 272 269 268 273 276 276 276 272 272 272 272 272 272 271 271 273 278 279 279 279 279 279 279 279 280 278 279 281 279 276 276 276 275 275 275 276 276 277 278 279 280 280 281 282 283 283 283 283 283 283 284 283 283 283 282 279 277 275 275 273 273 273 274 274 272 272 270 268 267
266 266 266 265 266 264 264 264 265 264 265 264 264 265 264 264 271 273 274 274 274 275 275 276 276 277 274 272 273 277 277 278 278 278 278 278 279 279 279 279 279 279 280 277 275 275 274 273 274 275 275 276 277 278 279 279 280 280 280 281 282 282 283 283 283 283 283 283 283 283 282 279 277 275 274 273 272 272 272 273 272 271 270 269 267
264 264 264 264 266 266 264 264 264 263 263 262 263 263 263 263 263 269 271 272 272 274 274 275 275 275 275 275 273 272 274 276 277 277 277 277 277 278 278 278 279 279 279 279 274 273 273 274 274 275 276 276 277 278 279 279 279 280 280 280 281 282 282 282 283 283 283 283 282 282 280 278 276 275 274 273 272 272 271 271 271 270 269 268 267
262 262 263 264 263 265 264 263 262 262 261 261 261 261 261 261 262 262 265 269 271 271 272 273 273 274 274 275 275 275 275 276 276 277 276 277 277 277 277 278 278 278 278 274 272 272 273 274 274 275 276 276 278 278 278 278 279 279 280 280 280 281 282 283 283 283 283 282 282 281 280 277 275 274 273 272 272 271 271 270 270 269 268 267 266
261 261 261 262 261 262 262 261 262 261 261 261 261 260 260 261 261 261 262 263 264 268 270 271 272 273 273 274 274 274 275 275 275 275 276 276 277 277 277 275 277 277 275 272 272 272 272 273 274 275 276 277 277 277 278 279 279 280 280 281 281 281 282 283 282 282 282 282 282 281 278 276 274 273 271 271 272 271 270 270 269 268 267 266 265
259 262 264 263 260 260 261 262 261 260 261 260 260 260 260 261 262 262 262 262 262 263 263 265 268 271 270 271 272 274 274 274 275 275 275 276 276 277 276 271 270 270 271 272 272 272 272 273 274 275 276 275 276 277 277 278 279 279 280 280 281 281 282 282 282 282 282 282 281 279 277 275 274 273 272 271 270 270 269 269 268 268 266 265 265
260 260 260 261 261 260 260 259 260 260 259 259 260 261 262 261 261 261 262 262 263 262 263 264 265 268 270 271 272 273 273 274 274 274 274 275 275 275 270 269 269 270 270 271 272 273 274 275 276 275 275 275 274 274 275 277 278 279 280 280 280 281 281 281 281 281 281 281 280 278 276 274 273 272 272 271 271 270 270 269 268 267 267 265 265
257 258 260 260 259 260 259 259 259 259 263 262 261 260 261 261 262 261 261 261 262 263 263 263 264 265 267 267 268 270 272 273 273 273 273 273 274 271 269 269 269 270 270 271 272 272 273 272 272 271 271 272 273 274 275 276 278 279 280 281 281 281 281 281 281 281 280 279 277 276 275 274 273 272 272 271 270 270 269 269 268 267 266 266 265
257 257 257 257 258 258 257 257 258 263 262 261 261 260 260 260 260 261 262 261 262 263 262 262 264 263 263 264 267 266 267 270 270 270 270 270 268 268 268 268 268 267 268 268 269 269 269 269 269 269 270 270 271 273 275 276 278 279 279 280 280 280 280 280 280 280 279 277 276 275 274 273 273 272 272 271 270 269 269 268 267 266 266 265 264
256 260 262 263 263 257 257 259 260 259 259 260 260 261 261 261 260 260 260 260 260 261 262 262 262 262 263 264 264 266 266 265 264 264 264 265 266 267 266 266 266 267 267 267 267 267 267 267 267 267 268 269 271 273 275 276 277 277 278 278 278 278 278 278 278 277 276 275 275 274 273 272 272 272 272 271 270 269 268 267 266 266 265 264 264
259 259 261 264 261 261 261 261 260 259 260 259 258 259 260 260 259 259 259 260 260 261 261 261 262 262 263 264 264 265 264 264 263 263 263 264 264 265 265 265 265 265 265 265 265 265 265 265 266 266 267 268 269 271 274 274 275 276 276 276 276 276 276 276 275 275 274 274 274 273 272 272 272 272 272 271 270 269 268 267 266 266 265 265 264
258 258 261 263 262 260 260 260 259 258 258 260 259 259 258 260 260 260 259 260 260 261 261 261 261 262 263 265 267 267 264 263 262 263 263 264 264 263 263 264 264 264 264 264 264 264 264 264 265 266 267 267 268 270 272 273 274 274 274 274 274 274 274 273 273 273 273 273 273 272 272 272 272 271 270 270 271 269 268 267 266 266 265 263 261
256 257 258 259 261 259 258 259 259 262 260 261 259 259 260 260 259 259 260 260 261 261 261 261 261 262 264 265 266 266 264 262 262 262 262 262 262 262 263 263 263 263 263 263 263 263 263 263 264 265 265 266 267 268 269 270 271 272 273 273 273 273 272 272 272 272 272 272 272 272 272 272 271 271 271 271 269 268 267 267 266 265 263 261 260
257 257 257 259 258 258 258 258 258 257 258 258 258 261 261 260 259 260 260 260 260 261 260 260 261 261 262 264 264 264 262 261 262 262 262 262 262 262 262 262 262 262 263 263 263 263 263 263 264 264 264 265 266 267 267 268 269 269 271 272 272 272 271 271 271 271 271 272 272 272 272 271 271 270 270 269 268 268 267 266 265 264 262 261 260
257 258 258 258 258 258 259 257 258 259 258 260 261 260 260 259 259 258 258 258 259 259 260 260 260 261 261 262 262 261 260 260 260 260 261 261 261 261 261 261 262 262 262 262 262 262 262 262 263 263 263 264 265 265 266 266 267 267 268 269 271 270 270 270 270 270 271 271 271 270 270 270 270 269 268 268 268 267 266 265 264 263 262 261 260
255 256 257 256 257 256 256 258 258 257 260 259 257 257 259 258 258 258 258 258 259 259 259 260 260 260 260 260 260 260 260 259 260 260 260 260 260 261 261 261 261 261 261 261 261 261 262 262 262 262 262 263 263 264 264 264 265 266 267 268 269 269 269 269 270 270 271 270 270 269 269 269 269 269 268 268 267 266 265 264 263 262 261 261 260
256 256 257 256 257 257 257 255 259 257 257 256 256 255 256 256 257 257 258 258 259 259 259 259 259 260 260 259 259 260 259 259 259 259 260 260 260 260 261 261 261 261 261 261 261 261 261 261 261 261 262 262 263 263 263 264 264 265 266 267 268 269 270 270 270 270 270 270 269 269 268 268 268 267 266 267 266 266 265 264 263 262 262 261 260
255 255 256 256 255 257 257 257 256 255 254 255 256 256 256 256 256 258 259 259 259 259 258 258 258 258 258 259 259 259 259 259 259 259 259 259 260 260 260 260 260 260 261 261 261 261 261 261 261 261 262 263 263 263 263 263 264 265 266 267 268 268 269 270 270 270 269 269 269 268 268 267 266 266 265 265 264 264 263 263 262 262 261 260 259
255 255 255 256 255 255 255 255 255 259 256 256 256 256 257 256 256 257 256 257 257 257 257 257 257 258 258 258 259 259 259 259 259 259 259 259 259 259 259 259 259 259 260 260 260 261 261 261 261 262 263 263 263 263 263 264 264 264 265 266 267 267 267 267 269 269 269 269 268 267 267 266 266 266 265 264 264 263 262 262 261 261 260 260 260
255 255 255 255 255 255 255 255 256 254 254 254 255 255 256 255 255 255 255 256 256 256 256 256 257 257 257 258 258 258 258 259 258 258 258 259 259 259 259 259 259 259 259 259 259 260 260 261 261 262 263 263 263 263 264 264 264 264 264 265 266 266 267 267 267 267 266 268 267 267 267 266 265 264 264 263 263 263 262 261 261 260 260 259 259
256 256 255 255 255 255 255 255 254 253 254 254 253 253 254 255 254 255 255 255 255 255 255 256 256 256 256 257 257 257 258 258 258 258 258 258 258 258 258 258 258 258 258 258 258 259 259 260 261 261 262 263 263 264 264 264 264 265 265 265 265 265 265 265 266 266 266 267 266 266 266 265 264 264 263 263 262 262 261 260 260 259 259 259 259
256 255 255 255 255 255 254 253 253 253 253 253 251 252 253 253 253 253 254 254 254 254 255 255 255 255 256 256 257 257 257 257 257 258 258 257 258 258 258 258 258 258 258 258 258 258 259 259 260 261 262 263 263 264 264 264 264 265 265 265 265 264 264 264 264 265 265 264 265 265 265 264 263 262 262 262 261 261 260 259 259 259 259 259 258
Wind_Speed
6 6 7 7 8 8 7 6 7 7 7 7 7 6 5 5 4 3 4 5 4 4 5 4 4 4 4 4 4 4 4 5 5 5 5 5 6 4 4 5 5 5 6 7 5 6 6 8 9 9 7 8 8 8 8 9 7 7 6 6 8 8 9 13 16 20 21 12 8 11 6 7 12 7 10 8 8 8 9 9 8 7 8 8 8
7 7 7 8 8 8 7 6 7 7 7 6 6 6 5 5 4 5 5 4 4 4 4 3 4 5 5 4 4 4 4 4 4 4 4 4 5 4 4 5 5 6 5 8 7 6 6 8 9 9 6 8 8 9 9 9 8 8 8 7 10 9 7 9 12 15 21 20 11 7 10 8 14 6 9 11 9 7 9 8 7 7 8 9 8
7 7 8 8 8 7 7 7 7 6 7 6 7 6 5 5 4 4 4 4 4 4 4 5 5 4 4 4 4 3 3 3 3 3 3 4 4 4 4 4 5 6 7 7 8 7 8 7 9 9 7 8 8 9 9 9 9 10 11 8 11 11 10 11 11 15 19 21 18 12 11 9 11 12 8 8 9 7 8 8 8 8 8 8 8
7 8 8 9 7 7 8 7 7 7 7 6 6 5 4 4 4 4 4 4 6 5 5 5 4 4 4 4 4 4 4 4 4 3 3 3 4 5 4 4 4 5 6 7 8 7 8 9 9 9 8 9 10 9 9 8 9 9 10 9 10 12 10 10 12 13 15 19 20 15 10 11 12 9 7 7 8 8 8 9 7 8 9 7 8
7 7 8 9 8 8 7 6 7 6 6 5 5 5 5 4 4 5 5 6 5 5 5 4 4 4 5 4 4 4 4 5 5 4 4 4 4 5 5 5 5 6 6 7 8 8 8 9 10 9 8 10 11 9 9 10 9 9 10 9 10 10 10 9 11 12 14 17 19 17 13 11 12 12 8 9 8 8 7 9 9 10 7 5 5
7 8 7 9 8 8 6 6 6 6 6 6 5 5 5 5 5 5 5 4 4 4 4 4 4 4 4 4 4 4 4 4 5 5 5 5 4 5 5 5 6 6 7 7 8 7 8 9 9 9 9 10 12 10 9 11 10 10 10 10 10 10 11 11 10 12 14 16 16 19 17 14 12 12 9 6 11 11 10 9 8 8 5 7 8
7 8 8 8 8 7 7 6 6 5 6 5 5 5 5 5 5 4 4 4 4 4 4 4 4 4 4 4 4 4 5 4 4 5 5 4 4 5 6 6 7 7 7 8 8 8 8 9 10 9 10 10 11 12 11 10 10 11 11 11 12 11 11 11 10 12 13 14 15 16 16 15 13 14 10 7 9 10 11 12 11 6 7 9 10
8 8 8 8 7 7 6 5 5 5 5 5 5 4 4 4 4 4 4 4 4 4 4 4 4 3 4 4 4 4 4 4 5 4 4 4 5 6 5 7 8 8 8 8 8 9 10 10 10 10 11 11 11 12 10 11 10 11 10 10 11 12 12 11 11 11 12 13 14 15 13 15 14 11 5 2 7 7 8 9 13 13 8 8 11
8 8 8 8 6 5 5 5 5 5 5 4 4 4 4 4 4 3 4 4 4 3 3 3 4 4 4 4 4 4 5 5 4 5 6 7 5 6 7 7 8 9 10 10 9 9 10 10 10 11 12 16 18 17 16 14 11 12 13 9 10 12 12 11 11 11 11 12 14 12 13 15 14 13 11 11 12 14 10 8 12 12 9 8 8
8 8 8 7 5 5 5 5 5 4 4 4 4 4 3 3 3 4 4 4 3 3 4 4 4 4 5 5 5 5 5 4 6 11 10 7 7 7 7 7 8 9 10 11 11 10 11 11 12 17 18 19 19 20 21 21 21 17 16 13 12 11 12 12 12 11 11 12 13 14 14 16 16 14 13 15 12 9 10 9 11 11 8 9 9
7 8 7 5 5 5 5 5 4 4 4 4 3 3 3 3 4 4 4 4 4 4 4 4 4 4 4 5 5 6 6 7 12 12 13 14 9 8 7 8 7 8 9 10 13 14 12 11 11 13 15 15 16 20 20 22 22 23 25 24 20 15 13 14 14 12 11 12 13 14 14 17 18 15 15 14 11 12 11 10 10 9 10 11 14
8 7 6 5 5 5 4 4 4 4 4 4 4 4 4 4 4 4 4 4 4 3 4 4 4 4 4 4 4 5 6 9 13 14 15 15 14 10 9 9 9 9 9 11 12 13 14 14 12 10 10 12 13 13 16 20 22 23 24 24 24 24 22 17 16 14 13 13 13 15 15 17 17 15 14 12 13 11 10 10 10 11 11 12 11
7 7 5 5 5 4 4 4 4 4 4 4 4 4 4 4 4 4 5 4 3 4 5 5 5 5 4 5 5 6 6 10 13 14 15 16 17 14 9 9 10 11 12 12 13 14 13 13 14 13 11 15 14 12 12 14 18 22 23 24 24 24 23 25 25 20 14 15 16 18 17 18 17 17 14 12 9 13 10 10 10 11 12 13 12
7 7 5 5 4 4 4 4 4 4 4 4 4 4 3 4 4 3 4 4 4 5 5 5 5 5 5 5 6 5 6 9 13 14 15 17 18 16 10 11 11 12 13 13 13 14 14 14 14 16 16 14 11 11 11 14 14 14 14 14 13 16 20 24 24 25 22 18 17 19 20 17 17 16 15 11 11 12 11 12 9 11 12 14 13
7 6 6 4 4 4 4 4 4 4 4 4 4 4 4 4 4 4 4 4 4 5 6 6 5 5 6 6 6 7 6 11 14 16 16 17 19 17 11 10 11 12 13 13 14 15 15 14 14 16 18 17 15 14 13 14 15 16 16 16 15 14 14 14 12 11 14 16 18 19 20 19 19 19 16 14 14 14 13 14 13 12 11 8 6
7 6 5 4 4 4 4 4 4 4 4 4 4 4 4 3 4 4 3 3 3 3 4 4 5 7 6 7 7 9 8 10 14 15 17 17 19 12 10 11 12 13 14 14 14 13 13 13 13 16 17 18 20 22 19 16 15 18 20 18 17 15 15 15 16 15 16 16 16 16 17 18 20 19 17 15 14 13 11 10 9 10 10 9 12
6 6 5 4 4 4 4 4 3 3 3 3 3 3 4 4 4 3 4 4 5 5 5 5 5 6 8 7 7 9 9 8 11 15 16 18 14 10 11 11 11 12 14 15 15 14 13 12 13 14 16 17 21 24 24 21 16 18 18 19 18 18 18 14 14 18 22 24 26 28 28 28 27 27 28 29 21 15 11 10 12 11 9 11 12
5 5 5 5 4 4 4 3 2 2 2 2 3 3 3 3 3 4 4 6 6 6 6 6 5 5 7 8 6 8 11 11 12 13 16 18 15 11 11 11 12 13 14 14 14 13 14 20 18 15 15 17 21 25 25 20 15 15 16 17 20 20 19 15 11 11 17 21 24 26 27 27 29 29 29 28 27 20 13 12 13 10 10 12 13
5 5 5 4 4 3 3 2 2 1 2 2 3 4 4 4 4 4 4 4 5 5 5 6 6 5 5 7 10 9 10 12 14 13 17 18 15 10 10 10 12 13 14 16 15 14 15 15 20 19 17 18 25 25 27 22 15 14 15 16 19 20 18 16 15 16 13 13 13 13 15 18 18 16 17 23 24 22 16 15 12 11 11 11 12
4 4 4 4 3 3 2 2 2 2 2 3 3 4 4 4 4 4 4 4 4 4 4 5 8 8 5 6 8 8 10 11 11 14 16 18 19 13 10 11 12 14 15 15 16 16 15 15 16 19 21 25 26 29 28 28 20 16 15 15 17 20 15 16 17 16 17 16 16 14 15 13 12 12 12 14 15 17 16 14 12 11 11 12 11
4 3 4 3 3 2 2 2 2 2 3 3 3 4 3 3 4 4 4 4 4 6 8 8 9 9 8 7 7 8 7 10 12 16 17 19 21 18 10 11 11 12 13 16 14 15 15 15 14 20 26 32 34 35 35 34 31 21 17 16 16 20 23 19 20 22 18 17 16 15 14 12 12 11 11 12 12 12 12 13 12 11 11 12 12
3 4 4 2 2 2 2 2 2 2 2 2 3 3 3 2 2 3 4 6 8 9 8 8 9 10 10 8 6 8 9 11 11 14 20 22 21 21 12 10 12 13 14 13 14 13 14 15 15 23 35 36 33 33 34 31 33 22 19 26 33 34 22 17 17 16 16 16 14 13 13 12 11 11 11 11 11 12 11 11 10 11 11 11 12
3 3 3 3 2 2 2 1 2 1 1 2 2 2 2 3 6 6 7 8 8 8 7 7 8 10 11 9 7 7 8 10 14 13 19 21 22 21 21 16 20 13 12 15 15 15 15 17 19 28 33 35 34 34 33 36 30 20 32 34 35 37 26 15 15 16 16 17 16 15 14 13 11 11 11 11 10 9 9 9 10 11 11 9 7
3 3 3 3 2 1 1 1 1 1 2 2 1 4 7 6 6 6 6 6 6 7 7 7 9 10 12 13 12 10 7 7 11 16 15 20 21 22 22 23 23 16 15 14 15 14 15 15 19 33 35 35 34 34 35 36 27 35 34 36 35 30 19 16 14 14 15 15 15 15 14 13 12 12 12 9 8 7 4 2 1 1 3 4 3
4 4 4 3 1 0 1 1 1 1 1 3 7 7 6 6 7 5 4 5 5 6 7 7 8 9 10 12 12 12 10 9 9 11 17 18 20 22 24 27 26 26 17 12 13 15 22 33 34 33 33 35 36 35 30 28 30 30 31 32 29 17 15 13 14 14 14 14 14 14 14 13 12 11 9 5 2 5 5 4 5 6 6 8 8
5 4 3 2 1 1 1 2 0 2 5 5 5 4 4 4 4 5 5 5 5 6 7 7 8 8 10 10 12 13 13 11 11 11 12 14 13 21 28 26 26 26 25 20 27 33 32 31 34 34 29 24 22 19 19 20 27 32 31 27 16 14 12 12 14 13 12 14 14 14 13 11 11 7 2 4 5 6 7 7 7 5 5 6 8
5 4 3 2 1 1 1 3 5 6 5 5 5 4 4 3 3 5 5 6 5 5 5 6 7 9 10 10 12 13 13 12 11 11 11 13 13 14 14 15 20 21 15 13 16 16 21 20 19 26 25 32 31 26 24 23 20 16 13 11 12 12 12 12 12 12 13 14 14 13 12 10 2 2 3 5 5 5 5 7 7 5 6 5 9
5 4 4 3 1 2 5 6 6 6 5 5 5 5 4 3 3 5 5 6 5 5 5 5 7 9 10 10 12 13 13 12 11 11 13 14 13 12 11 12 11 10 12 12 14 17 18 17 19 13 12 13 13 12 12 12 14 14 14 12 12 13 14 17 15 12 13 13 15 14 12 6 5 6 4 5 5 5 5 6 8 6 6 9 8
5 4 3 3 5 5 5 4 4 5 4 4 4 4 6 5 5 4 5 5 3 5 6 7 7 6 7 9 11 13 14 15 13 17 21 24 21 17 14 12 13 13 19 29 23 17 14 15 14 15 12 14 14 14 12 13 14 15 15 14 12 13 12 10 10 11 11 11 13 12 12 7 7 4 4 4 4 5 5 5 6 9 4 3 10
5 5 4 5 4 4 4 4 4 3 4 5 5 4 6 8 7 5 5 6 9 10 9 8 9 9 9 8 6 8 11 15 26 33 31 31 32 32 30 29 27 22 27 34 24 16 13 12 14 12 13 12 13 15 15 14 14 14 13 15 15 13 12 11 11 11 11 11 12 12 11 7 6 5 5 5 4 4 5 7 7 7 8 9 9
6 5 4 3 3 2 3 3 3 3 4 4 4 6 6 3 7 10 8 7 8 10 13 14 15 14 11 11 13 21 23 24 26 28 31 30 31 33 34 33 32 31 30 22 16 12 14 13 13 13 11 11 12 13 14 15 14 15 14 14 12 14 13 11 10 10 10 11 11 10 9 7 7 6 6 7 7 6 5 4 5 5 7 10 10
6 4 4 3 3 3 2 2 3 3 3 3 4 4 6 8 3 1 3 6 7 11 12 12 12 13 16 16 16 14 20 25 27 27 27 28 28 30 31 33 33 32 30 28 14 12 13 12 13 12 13 14 13 13 14 14 15 13 13 13 13 11 11 11 10 11 11 11 10 9 7 6 6 6 6 6 6 6 6 7 6 7 7 6 8
6 5 3 4 3 3 2 2 2 2 2 3 3 3 4 5 10 10 1 2 7 6 5 8 12 15 17 19 22 21 24 27 31 30 30 30 30 29 30 31 30 30 30 16 12 13 11 12 12 13 14 15 11 11 14 14 14 13 12 13 15 12 11 12 13 12 11 11 11 10 8 6 5 5 5 6 7 8 7 7 6 7 8 9 8
5 5 5 4 3 1 1 1 0 1 2 1 2 2 3 4 4 5 12 12 4 1 2 9 15 19 19 20 19 19 20 23 26 28 30 31 31 30 28 22 27 27 22 13 10 11 12 13 13 14 12 13 13 16 14 13 12 15 14 13 12 13 13 12 11 11 10 10 10 9 6 4 6 6 6 6 5 6 7 7 8 9 8 9 11
5 6 6 3 1 0 0 0 1 2 1 1 1 2 4 4 4 6 7 7 10 13 11 7 7 13 16 17 20 22 21 22 24 25 27 28 28 29 28 16 14 11 9 8 11 11 12 13 14 13 13 14 12 14 13 15 14 13 14 12 13 13 13 12 11 11 10 10 10 7 5 6 6 7 8 8 8 8 7 8 7 9 10 10 10
5 4 1 2 1 1 1 2 1 1 2 2 1 2 3 3 5 5 4 5 8 10 10 10 9 10 17 18 21 24 26 25 24 25 24 25 24 25 15 13 11 11 11 11 11 12 11 12 10 13 13 13 15 14 15 14 15 14 14 14 14 12 13 12 12 11 10 10 8 5 3 4 5 6 5 5 7 8 7 7 8 7 8 9 9
4 2 2 3 3 1 1 1 2 2 3 2 2 2 2 3 5 3 5 6 7 6 8 11 12 12 8 6 9 19 24 25 25 23 21 20 24 15 9 10 12 13 13 11 11 13 12 12 14 15 14 15 13 14 14 14 14 13 14 12 14 13 11 12 12 12 11 9 4 3 5 5 6 6 7 7 6 6 7 7 7 8 8 11 12
2 2 3 3 2 2 3 3 2 2 1 1 1 1 2 3 3 4 6 6 6 7 9 9 8 10 12 14 13 11 16 20 21 14 11 12 11 9 10 11 12 13 14 13 14 14 13 14 12 13 15 15 16 13 13 14 12 14 12 13 12 12 16 16 14 11 8 4 3 3 4 4 5 6 6 7 8 8 8 8 9 9 9 10 9
2 5 7 7 6 4 3 1 2 1 1 1 1 2 4 3 3 4 5 4 5 6 7 7 8 9 10 11 13 15 16 13 13 14 13 11 8 8 10 9 9 10 12 12 14 14 13 14 14 14 13 15 15 15 12 13 13 13 12 12 12 11 12 10 9 7 5 2 0 2 4 4 5 5 5 6 7 8 8 9 9 10 11 9 7
6 5 6 8 4 3 3 4 2 1 3 1 1 1 1 3 3 4 4 4 6 6 6 7 8 8 9 10 11 13 13 14 12 12 12 12 10 10 9 11 11 12 13 14 11 12 11 11 12 11 14 14 14 15 14 14 13 12 12 9 11 11 10 8 7 6 4 2 3 3 5 5 6 5 6 5 7 8 9 9 9 8 9 10 9
5 4 4 4 5 3 2 3 3 3 2 1 1 2 2 4 3 4 4 5 5 5 6 7 7 7 8 12 20 19 11 11 11 11 12 12 12 12 11 10 11 12 13 12 13 13 12 12 11 12 12 13 14 14 13 11 11 9 11 11 10 10 8 6 6 5 4 3 3 4 4 5 6 7 7 7 7 8 8 9 9 8 9 9 12
5 3 3 3 3 2 3 3 4 3 1 2 1 1 3 4 3 3 5 4 6 6 6 6 6 6 10 19 18 20 12 8 9 10 10 10 10 10 10 10 10 10 11 11 11 13 14 14 13 14 14 14 14 14 14 14 14 13 12 11 10 9 7 6 5 5 4 3 4 4 4 5 6 6 8 8 8 8 9 8 8 9 10 10 8
3 2 2 3 2 2 3 2 1 1 1 1 1 1 3 3 3 5 5 6 5 6 6 7 7 6 7 11 14 15 8 7 8 10 9 10 10 10 10 10 10 10 10 10 11 11 12 12 13 12 13 14 13 13 14 13 13 12 12 11 10 8 7 6 5 5 4 3 4 5 5 6 6 6 7 7 8 8 8 9 9 9 11 9 7
3 3 4 2 3 1 3 2 2 2 1 2 1 3 3 3 3 4 4 5 5 5 5 6 6 7 8 8 9 8 7 8 8 8 9 10 10 10 11 10 10 10 11 10 9 9 11 12 11 10 11 11 12 13 12 11 12 12 12 12 10 8 6 6 5 5 4 3 4 5 6 6 6 7 7 7 8 9 8 9 10 10 10 10 9
4 3 3 2 2 3 2 1 2 2 3 2 1 1 3 2 4 4 4 5 6 6 5 6 6 7 8 8 8 8 8 8 9 9 9 9 9 10 10 10 10 11 10 10 10 10 10 11 11 12 12 11 11 11 11 11 10 10 10 11 10 8 6 6 5 5 4 3 4 5 5 6 6 6 7 7 7 9 9 9 9 10 10 9 9
5 5 5 3 3 4 4 2 3 1 1 1 2 2 3 3 4 4 6 5 6 5 5 5 6 6 8 8 8 9 8 8 8 8 9 8 9 9 9 10 10 10 9 9 9 10 10 10 11 11 12 12 12 11 11 11 10 10 10 10 9 8 7 6 5 5 5 4 4 4 5 5 6 5 6 7 6 7 8 8 8 8 9 9 9
5 4 4 4 4 5 4 4 2 3 2 2 2 2 3 5 4 4 6 6 6 7 5 5 6 6 7 7 8 8 9 8 9 9 9 9 9 9 9 9 10 10 11 10 10 10 10 11 11 11 12 11 11 11 11 10 10 11 11 10 10 10 8 7 6 6 5 5 4 4 4 5 6 7 7 8 7 8 8 7 8 10 9 9 10
6 6 5 6 4 4 3 3 4 4 3 3 2 4 4 4 4 5 5 5 5 6 5 5 5 6 7 7 8 8 8 8 8 9 8 8 8 8 9 9 9 10 10 11 10 10 10 10 11 12 11 11 11 11 10 11 11 11 11 10 10 11 11 10 6 6 5 5 5 5 5 5 5 6 7 8 8 8 9 8 8 8 9 9 8
6 7 6 6 5 5 6 4 5 4 3 2 2 2 4 3 4 4 4 5 5 5 5 6 6 6 6 7 8 8 8 9 8 8 8 8 8 8 9 9 9 9 9 10 10 11 11 11 11 11 11 10 10 10 10 11 11 11 11 10 13 21 17 15 8 6 7 5 5 5 5 6 6 6 7 7 7 7 8 8 8 9 8 8 9
5 5 5 4 5 5 5 5 4 4 4 3 4 4 3 4 4 5 5 5 5 5 5 5 6 6 7 7 9 8 8 8 9 9 9 8 8 8 9 9 9 9 9 9 10 10 10 10 11 11 11 11 11 10 10 10 10 11 10 12 20 20 18 16 15 13 7 4 5 4 5 6 6 6 5 6 7 8 9 8 8 8 8 9 8
5 6 5 5 5 4 3 4 4 4 5 4 4 4 4 4 5 5 5 5 5 6 5 6 6 6 7 7 8 8 8 8 9 8 8 8 8 8 9 9 9 9 9 9 9 9 9 10 10 10 10 10 10 11 10 10 9 11 16 21 20 19 18 16 10 12 13 8 5 5 5 5 6 7 6 6 6 7 8 9 8 8 8 8 8
Wind_Direction
97 95 92 85 83 77 73 68 69 68 65 64 68 63 59 54 38 16 44 43 33 25 27 19 18 19 16 4 2 356 359 354 359 3 360 349 347 342 338 337 318 306 304 302 299 296 292 290 289 289 295 291 286 284 278 276 273 268 270 268 264 252 244 252 258 270 280 267 253 278 268 281 281 238 253 249 245 244 241 242 246 247 245 246 247
87 87 81 84 82 80 75 68 69 69 70 65 67 64 60 49 36 39 47 20 42 37 25 18 20 19 10 357 356 356 357 359 351 12 354 347 335 339 336 331 322 314 315 303 307 303 299 295 292 292 292 287 285 281 280 282 276 277 266 260 263 259 243 251 262 270 279 290 271 261 275 265 276 244 235 258 253 240 247 246 245 243 248 248 248
83 85 86 84 81 77 76 75 77 75 75 66 64 56 52 47 37 54 41 31 25 39 25 27 16 8 1 347 349 342 337 332 335 354 336 327 315 315 316 319 311 306 305 300 301 303 296 288 287 291 292 289 282 279 282 278 275 269 267 258 258 259 249 243 257 266 273 278 283 282 273 268 259 274 249 241 250 238 243 243 237 239 238 242 244
88 87 88 85 83 80 73 72 73 71 70 65 67 59 57 52 47 51 39 38 30 13 25 15 14 4 360 351 347 340 336 328 326 318 295 290 293 290 291 286 278 277 280 285 288 288 285 288 282 285 286 282 277 274 269 266 264 263 263 257 256 259 254 248 243 257 269 279 282 280 274 280 273 265 253 246 247 239 234 245 237 238 239 231 234
89 85 87 86 76 76 73 68 72 69 72 68 65 60 51 50 44 46 35 31 17 23 9 10 12 6 358 344 337 332 322 320 320 313 302 283 274 280 283 280 274 271 269 271 273 274 278 273 277 280 278 278 276 269 270 267 262 262 261 261 257 258 259 249 250 249 259 267 277 281 280 269 274 276 264 264 262 252 250 246 245 246 245 238 241
87 88 83 85 79 74 72 69 68 68 64 58 54 51 47 42 38 28 39 33 20 15 16 357 10 352 345 325 324 318 321 323 317 308 305 302 290 282 280 279 277 274 275 272 271 268 268 270 271 269 270 267 272 272 268 266 267 261 260 262 259 259 260 257 249 251 254 262 269 282 283 280 276 270 264 228 264 271 263 252 248 245 237 252 237
88 88 86 85 84 75 70 67 65 64 61 57 49 44 42 40 38 30 17 42 37 19 2 9 345 351 322 327 322 318 318 321 320 313 309 309 308 306 302 296 288 284 275 272 270 268 264 267 268 262 259 260 264 267 269 268 264 262 260 261 264 260 260 259 253 253 254 262 267 266 277 278 272 278 272 231 242 252 263 272 265 227 215 234 249
91 89 89 85 80 76 73 72 67 61 59 52 45 41 38 32 26 14 32 30 22 13 359 349 325 338 322 327 318 320 320 317 313 305 303 307 312 304 298 298 296 290 285 280 275 271 267 265 263 261 256 257 256 262 258 265 265 267 259 254 260 261 260 262 260 255 257 260 262 271 269 277 278 267 272 286 265 260 235 242 260 266 238 222 232
93 91 86 83 80 80 74 68 64 59 55 52 43 36 33 20 13 17 24 23 2 342 340 341 340 340 333 330 324 321 320 313 305 310 316 312 306 301 298 292 289 290 289 284 277 274 272 265 262 259 255 254 253 253 255 252 261 270 267 252 253 259 264 262 261 259 259 260 266 265 270 271 271 277 270 257 248 256 256 211 245 254 263 262 243
96 90 85 85 84 80 78 76 73 66 59 54 48 31 28 12 15 20 10 1 348 339 351 345 350 341 338 332 332 328 320 310 306 305 304 297 299 290 287 283 282 283 287 289 286 273 267 270 268 262 260 260 259 258 257 256 250 247 259 263 255 254 258 264 262 259 260 262 264 269 269 269 270 266 265 260 263 259 254 238 244 252 255 253 264
92 93 92 90 87 79 76 78 83 75 67 54 39 29 15 12 20 16 4 353 349 340 346 348 343 334 331 329 327 325 319 315 310 308 306 304 301 296 289 286 277 275 275 279 285 288 282 271 269 271 269 265 263 261 259 257 255 253 251 250 249 247 258 261 262 260 258 258 266 266 264 268 268 267 263 268 263 257 253 246 243 247 242 251 262
98 94 93 89 82 80 79 81 80 73 65 45 34 20 22 18 16 5 354 353 343 347 353 335 329 327 325 324 316 305 302 297 301 304 305 305 305 302 298 294 291 285 281 281 283 286 287 288 284 279 271 267 269 268 265 261 258 255 254 254 253 248 240 242 256 263 258 260 261 260 265 263 268 267 267 266 266 264 252 245 240 237 242 243 248
102 97 94 90 84 79 80 79 74 66 49 38 28 22 25 12 4 355 349 326 335 356 339 336 330 326 321 314 304 296 290 291 295 298 301 301 302 302 295 291 292 290 290 287 285 286 288 291 294 288 279 272 269 269 270 271 268 265 261 260 259 256 252 245 240 243 256 257 259 263 257 264 266 265 261 263 265 268 259 248 239 238 238 243 245
102 101 95 88 87 79 78 73 64 50 39 35 26 19 23 10 346 325 323 340 354 341 335 328 319 318 312 302 296 290 286 290 296 300 302 303 303 303 295 295 291 289 288 288 287 288 288 291 294 294 294 289 278 273 275 275 277 276 271 265 261 258 255 250 246 242 241 246 252 256 260 259 262 267 269 268 267 264 265 260 250 248 242 242 240
101 103 94 88 84 80 76 66 54 39 28 27 21 17 11 353 349 331 331 330 334 329 323 322 313 306 305 299 294 292 287 295 302 304 304 304 304 304 299 296 293 291 289 286 285 285 288 289 288 288 291 292 289 285 282 281 283 283 279 276 271 266 261 257 247 240 241 243 248 253 260 263 265 268 271 268 261 260 258 262 261 259 257 258 270
100 98 96 89 83 75 72 60 45 36 18 15 15 4 356 338 326 310 315 310 300 301 297 289 300 305 300 303 308 304 303 306 304 305 307 307 308 306 303 300 297 295 293 292 288 288 288 287 288 287 287 289 290 291 287 285 284 284 284 283 282 276 268 259 253 244 244 247 248 253 256 259 261 263 264 265 264 263 262 261 263 261 257 245 244
100 100 94 83 74 65 65 59 45 31 15 11 5 349 340 321 308 302 331 329 325 319 309 305 304 306 307 307 306 301 301 303 305 307 309 312 314 310 307 304 299 297 296 296 295 295 294 290 288 288 290 290 294 295 294 292 286 283 283 285 285 285 282 279 265 254 251 251 254 256 257 259 260 261 263 263 263 262 261 255 253 249 238 245 247
93 91 86 78 69 68 66 61 54 15 20 354 335 316 301 291 301 331 338 322 320 313 310 312 307 302 302 301 299 301 303 307 313 315 315 316 318 314 310 308 304 304 301 298 300 299 297 296 293 290 291 294 297 297 298 298 291 286 286 288 290 289 287 289 284 267 257 256 256 258 258 259 259 261 262 262 262 262 259 252 256 255 234 233 245
89 86 82 80 74 65 79 62 37 7 1 320 320 313 313 313 319 326 311 299 296 301 309 309 306 300 286 295 306 309 306 311 320 323 319 318 321 317 314 311 310 309 309 306 305 303 303 300 296 295 295 296 300 303 304 305 298 297 295 292 288 286 287 293 290 286 281 275 265 261 260 258 260 258 258 258 258 259 255 255 256 249 240 237 241
88 79 75 77 77 54 52 67 13 358 327 318 321 309 304 321 314 308 302 294 303 308 300 308 314 316 319 316 317 315 312 310 314 319 321 321 326 326 318 316 313 311 309 306 307 306 305 304 302 304 304 306 308 311 311 308 304 300 296 290 288 287 293 291 287 283 281 275 274 268 264 259 257 250 247 248 251 250 253 249 249 242 241 242 235
78 79 77 80 75 57 24 34 4 334 326 314 314 309 303 291 294 305 315 314 333 339 342 333 326 320 322 321 311 306 303 309 315 322 323 326 328 328 317 312 309 306 304 303 301 303 306 307 308 313 318 317 313 310 307 304 302 299 296 291 288 292 297 293 293 288 283 279 272 270 267 262 256 250 245 244 244 246 246 244 240 238 235 242 238
91 100 107 91 79 57 61 0 337 315 309 312 306 282 269 266 291 332 346 355 354 348 341 334 327 317 314 316 315 313 314 315 318 322 325 325 324 322 317 307 308 308 306 301 303 306 309 313 316 314 311 308 308 308 306 305 304 301 293 293 295 296 294 291 290 290 286 283 278 273 271 268 262 253 248 244 241 241 241 238 238 237 233 236 235
109 114 106 96 94 74 32 337 310 308 299 280 255 257 286 1 6 7 4 359 352 343 332 324 322 319 318 317 318 317 319 320 322 320 320 319 320 320 319 317 319 320 312 308 309 307 306 302 298 300 305 307 307 307 307 307 307 301 301 300 298 296 294 289 286 283 281 280 279 276 274 271 267 261 253 250 243 237 237 233 235 238 235 243 241
106 105 105 106 88 75 300 282 272 261 259 248 267 25 15 17 9 359 4 351 336 330 332 336 331 327 324 320 319 319 319 316 315 315 314 318 320 321 323 323 322 317 312 301 300 296 295 296 301 305 305 305 305 306 308 305 301 301 300 299 297 292 283 279 276 277 278 276 274 273 270 267 263 257 253 254 251 235 235 279 283 114 92 65 36
111 115 120 115 114 182 256 230 229 243 274 8 22 14 9 8 2 347 348 339 339 337 331 335 328 319 317 315 314 313 317 318 314 312 316 317 321 323 323 320 319 317 310 298 292 294 299 301 303 304 304 303 303 300 298 294 292 292 290 289 289 286 283 277 278 274 276 280 278 274 269 266 265 265 267 245 125 82 101 67 64 70 83 85 60
126 122 117 141 195 196 206 206 216 13 24 27 30 11 352 342 341 327 343 345 348 339 327 328 318 314 309 311 312 313 316 321 320 319 320 322 320 318 318 317 317 316 313 305 304 303 302 302 300 298 297 293 295 295 295 294 292 289 288 287 285 280 275 276 272 268 270 278 277 273 272 273 270 269 224 152 167 166 142 140 132 118 120 109 84
118 119 154 176 194 200 192 33 20 17 19 17 8 353 339 338 340 334 333 333 331 320 311 310 310 310 312 313 314 313 314 317 322 321 324 322 317 313 315 316 316 314 308 299 300 298 297 295 294 298 294 293 291 287 287 287 286 286 287 282 281 276 272 271 266 265 273 276 278 275 274 278 319 139 194 183 180 176 164 149 136 126 120 104 101
136 150 158 166 160 68 42 31 25 11 2 357 349 343 340 337 333 314 313 311 314 307 307 307 311 314 313 316 314 312 311 315 319 324 321 319 320 320 317 316 317 314 312 309 306 303 304 303 301 297 294 291 288 293 291 288 286 286 284 283 280 275 269 267 266 267 270 273 274 275 275 269 232 230 199 196 183 164 166 152 141 130 138 126 99
150 143 135 104 60 50 40 30 16 8 348 349 336 327 329 323 310 289 273 248 256 292 309 305 302 297 301 307 314 311 312 312 313 315 315 317 318 318 318 319 321 321 318 318 316 312 311 308 306 307 307 306 304 299 294 293 292 290 286 284 284 285 284 278 269 268 274 273 273 273 276 256 248 201 192 168 170 163 159 134 137 135 138 98 124
136 102 84 73 69 47 34 24 13 11 359 350 341 326 321 317 302 294 285 289 299 308 310 306 309 311 305 292 279 291 299 303 311 317 319 320 319 318 317 318 320 320 321 321 320 312 310 306 307 305 305 300 301 303 302 300 299 299 297 297 297 297 287 279 279 280 278 277 276 275 272 256 230 192 180 174 153 158 162 159 152 149 134 133 124
105 97 86 73 69 68 51 37 11 18 8 358 342 325 320 314 305 296 296 294 304 310 312 311 314 315 318 316 313 309 306 307 311 314 316 319 320 320 320 321 322 323 324 323 321 315 312 311 307 302 296 295 295 299 303 308 308 306 304 304 300 295 289 287 284 284 282 281 277 270 266 241 222 190 185 174 165 152 139 125 130 136 139 140 130
120 115 116 108 82 74 55 41 20 22 356 347 334 330 329 327 338 315 324 323 311 311 316 327 332 334 329 323 317 310 311 313 314 315 316 317 318 319 319 319 321 323 325 327 316 310 308 303 301 302 305 302 301 305 311 308 306 303 304 304 303 300 297 294 291 287 286 283 277 275 256 229 207 190 178 163 154 151 146 144 143 137 125 113 126
130 135 122 91 68 49 46 48 32 12 335 330 325 330 339 352 339 333 42 309 294 300 327 338 336 331 327 322 318 314 313 316 318 318 319 319 319 318 317 317 319 322 324 322 312 305 298 299 298 299 301 302 304 311 305 301 300 301 301 303 304 302 297 293 291 287 282 279 279 274 255 222 185 165 154 158 158 155 153 144 136 126 126 123 116
135 110 93 87 80 48 54 41 46 291 281 287 293 326 339 339 332 328 327 336 360 231 290 334 333 329 324 320 318 316 316 317 318 318 318 318 319 319 319 318 316 316 317 310 303 300 302 300 299 298 297 306 310 305 301 301 301 302 301 299 295 298 296 293 288 284 282 280 279 270 238 188 160 157 156 156 150 142 143 144 142 138 139 138 133
94 87 93 88 94 151 230 190 228 245 265 289 322 344 335 334 333 328 330 327 323 326 327 323 322 324 321 320 321 325 325 322 320 319 318 317 318 320 322 316 311 310 307 295 299 296 298 300 301 307 314 311 305 312 312 311 306 303 303 300 300 299 298 295 290 286 284 284 278 256 205 176 170 165 161 158 155 154 151 146 147 144 140 136 132
95 84 87 130 179 174 194 205 237 239 263 292 306 323 317 322 321 315 304 300 310 315 314 318 317 317 315 319 322 327 328 328 326 324 322 322 322 326 321 315 310 309 312 312 309 306 302 305 313 318 318 314 313 308 307 305 305 303 303 302 302 302 302 299 296 293 288 284 273 238 179 156 162 153 144 143 151 149 144 143 138 136 135 133 135
109 119 171 159 144 160 201 229 248 251 268 266 294 295 292 298 301 296 296 302 308 304 307 316 322 320 316 312 313 324 324 325 324 324 326 327 329 327 309 312 314 316 316 318 319 320 322 326 325 317 311 307 306 307 305 303 302 300 303 301 303 303 302 302 298 295 291 282 251 185 176 167 157 156 152 145 135 127 128 126 124 128 132 135 132
127 168 168 146 150 205 212 228 238 259 259 277 263 261 286 294 291 295 308 310 309 314 315 316 319 322 325 325 331 329 324 322 322 321 323 329 330 329 329 324 322 318 319 319 323 323 321 320 318 313 311 309 305 304 303 301 303 307 306 305 305 304 303 301 298 294 289 271 234 180 144 138 142 143 142 143 141 135 130 130 130 125 125 133 132
173 203 197 198 194 196 202 221 239 197 257 249 257 267 298 298 303 306 307 304 306 305 305 311 316 321 322 325 327 327 329 333 340 336 333 332 331 329 325 321 316 318 320 320 321 320 317 315 316 315 309 308 310 306 305 311 310 306 307 310 310 312 313 313 309 307 300 282 67 88 104 108 117 124 130 131 131 130 128 129 131 134 137 136 130
180 196 192 191 192 203 179 186 199 212 231 215 264 280 298 301 299 303 304 305 304 304 306 312 317 319 322 326 326 331 333 331 330 329 327 328 329 332 330 327 327 326 325 322 319 317 313 309 308 303 306 307 308 308 312 313 309 309 311 312 316 316 318 322 324 323 339 13 63 83 106 115 120 115 114 115 121 125 128 130 130 130 127 125 118
170 186 175 186 180 194 181 197 213 219 216 210 239 275 274 287 297 304 300 297 297 298 302 305 308 311 315 318 325 330 330 323 322 323 325 326 327 328 328 328 327 325 323 321 319 318 316 313 309 310 312 313 311 312 313 313 310 312 315 318 319 320 322 330 341 347 360 33 61 85 99 110 116 121 118 114 113 115 115 120 122 123 118 116 118
164 170 177 193 193 166 183 214 215 214 204 237 261 260 277 298 298 291 291 293 295 298 304 302 304 308 310 317 324 329 328 314 315 316 317 319 319 319 320 320 320 317 318 318 319 319 318 315 314 317 317 316 316 317 322 323 324 324 322 323 324 326 331 338 343 354 9 36 61 86 95 104 110 109 117 121 118 120 122 123 122 118 119 114 103
169 176 178 200 169 177 195 210 195 181 255 238 255 279 294 290 284 282 288 287 291 299 302 306 307 310 309 313 320 324 318 311 312 315 315 317 317 319 320 320 320 318 317 317 316 316 312 311 312 316 319 318 317 320 321 320 321 322 324 325 328 333 338 338 341 349 6 39 56 79 90 102 107 108 111 111 116 116 117 117 114 110 118 111 111
179 187 196 182 189 204 214 192 207 218 189 220 250 266 274 272 280 287 284 287 289 292 295 300 307 311 311 314 317 318 313 316 315 314 316 317 318 320 320 319 320 320 321 321 321 318 316 316 315 313 313 315 317 320 318 320 323 322 323 325 326 333 339 343 343 342 350 27 63 72 86 95 102 107 109 115 118 119 117 116 116 120 124 130 127
182 185 185 186 197 191 211 219 192 205 203 216 264 269 274 276 281 279 284 287 290 292 294 299 309 311 312 313 318 316 315 314 314 314 314 316 317 318 319 320 320 321 321 322 325 324 323 323 317 317 318 319 322 325 325 322 321 323 322 324 324 330 337 340 337 341 353 35 68 83 92 103 110 111 112 111 116 120 121 123 122 124 124 126 125
184 182 174 176 190 201 197 225 201 187 201 217 227 257 271 270 271 274 280 284 286 291 293 301 305 307 305 307 309 312 311 311 310 310 309 312 315 318 319 321 322 321 321 322 322 326 327 323 322 320 321 324 327 330 329 328 328 324 324 322 327 326 327 331 343 6 18 32 63 84 95 91 92 99 105 113 110 110 114 115 118 122 124 122 120
163 163 172 184 178 200 197 201 197 221 219 217 226 232 250 256 260 270 275 280 285 290 294 299 303 300 301 301 305 305 308 307 307 308 309 310 313 315 320 322 324 324 326 326 327 327 329 328 324 321 320 324 330 332 337 339 341 338 335 335 338 343 341 347 4 17 27 38 44 65 79 97 100 104 97 100 101 105 109 117 124 124 119 121 124
173 178 184 186 185 185 201 200 211 221 210 218 224 232 246 252 266 267 269 274 279 282 288 292 289 290 295 296 297 298 299 300 300 301 305 308 311 314 320 323 326 327 325 325 328 330 330 331 328 323 323 330 335 340 342 348 349 345 341 341 347 348 358 5 14 21 28 42 55 62 81 89 96 95 103 109 117 125 123 120 114 108 113 116 119
181 182 184 185 190 191 194 201 202 201 208 209 234 251 254 261 262 264 266 272 273 278 282 286 288 289 289 292 295 295 295 299 300 303 305 309 313 317 320 322 324 325 327 326 327 329 330 332 333 330 327 331 334 339 345 348 352 350 349 346 352 357 2 10 14 19 38 55 63 71 80 86 90 95 101 110 114 115 112 108 110 112 110 113 121
186 186 186 191 187 196 200 195 199 206 212 220 225 237 248 255 264 266 269 270 277 278 280 280 284 286 291 295 297 296 299 301 303 304 306 308 313 315 318 321 325 325 327 325 326 326 328 329 332 334 331 332 335 340 347 351 351 353 354 357 2 5 5 9 18 19 21 36 46 70 81 92 90 94 97 108 115 114 109 110 111 114 118 124 125
196 194 191 190 191 197 193 198 213 216 216 222 222 232 244 250 252 262 264 269 271 275 278 279 282 286 287 285 288 293 296 295 295 296 298 303 308 314 318 321 322 324 323 325 325 326 327 329 330 333 333 334 337 343 348 350 354 355 1 5 8 9 12 16 16 22 25 24 40 52 80 92 112 110 108 102 103 100 110 112 114 115 120 122 125